TimeEDT,TemperatureF,Dew PointF,Humidity,Sea Level PressureIn,VisibilityMPH,Wind Direction,Wind SpeedMPH,Gust SpeedMPH,PrecipitationIn,Events,Conditions,WindDirDegrees,DateUTC
12:53 AM,78.1,71.1,79,29.75,10.0,SW,4.6,-,N/A,,Clear,220,2013-06-28 04:53:00
1:53 AM,78.1,70.0,76,29.74,10.0,WSW,6.9,-,N/A,,Clear,240,2013-06-28 05:53:00
2:53 AM,78.1,69.1,74,29.74,10.0,WSW,6.9,-,N/A,,Clear,250,2013-06-28 06:53:00
3:53 AM,77.0,66.9,71,29.73,10.0,West,6.9,-,N/A,,Clear,270,2013-06-28 07:53:00
4:53 AM,75.9,66.0,71,29.73,10.0,WNW,3.5,-,N/A,,Clear,290,2013-06-28 08:53:00
5:53 AM,75.0,66.0,73,29.72,10.0,West,4.6,-,N/A,,Clear,270,2013-06-28 09:53:00
6:53 AM,73.9,66.0,76,29.72,10.0,WSW,3.5,-,N/A,,Clear,240,2013-06-28 10:53:00
7:53 AM,77.0,66.0,69,29.72,10.0,WNW,6.9,-,N/A,,Clear,300,2013-06-28 11:53:00
8:53 AM,78.1,64.9,64,29.72,10.0,WNW,6.9,-,N/A,,Clear,290,2013-06-28 12:53:00
9:53 AM,80.1,64.9,60,29.72,10.0,WNW,9.2,-,N/A,,Clear,290,2013-06-28 13:53:00
10:53 AM,82.0,64.9,56,29.72,10.0,WNW,11.5,-,N/A,,Clear,300,2013-06-28 14:53:00
11:53 AM,84.0,62.1,47,29.71,10.0,WNW,12.7,-,N/A,,Clear,300,2013-06-28 15:53:00
12:53 PM,86.0,59.0,40,29.70,10.0,WNW,12.7,20.7,N/A,,Partly Cloudy,300,2013-06-28 16:53:00
1:53 PM,87.1,55.9,35,29.69,10.0,WNW,18.4,-,N/A,,Clear,290,2013-06-28 17:53:00
2:53 PM,88.0,57.0,35,29.67,10.0,NW,18.4,23.0,N/A,,Partly Cloudy,310,2013-06-28 18:53:00
3:53 PM,87.1,57.0,36,29.65,10.0,WNW,16.1,23.0,N/A,,Partly Cloudy,290,2013-06-28 19:53:00
4:53 PM,86.0,55.9,36,29.63,10.0,WNW,12.7,21.9,N/A,,Clear,290,2013-06-28 20:53:00
5:53 PM,87.1,55.9,35,29.62,10.0,WNW,15.0,21.9,N/A,,Partly Cloudy,300,2013-06-28 21:53:00
6:53 PM,86.0,59.0,40,29.61,10.0,West,16.1,23.0,N/A,,Mostly Cloudy,270,2013-06-28 22:53:00
7:53 PM,84.9,61.0,44,29.62,10.0,WNW,6.9,-,N/A,,Partly Cloudy,300,2013-06-28 23:53:00
8:53 PM,82.9,55.9,39,29.63,10.0,WNW,9.2,-,N/A,,Partly Cloudy,300,2013-06-29 00:53:00
9:53 PM,82.0,55.9,41,29.64,10.0,WNW,8.1,-,N/A,,Overcast,300,2013-06-29 01:53:00
10:53 PM,77.0,57.0,50,29.65,10.0,WNW,5.8,-,N/A,,Clear,300,2013-06-29 02:53:00
11:53 PM,73.9,59.0,59,29.65,10.0,Calm,Calm,-,N/A,,Clear,0,2013-06-29 03:53:00